ARIANE 5 R/B, 40334

Orbit data source: Space-Track

ARIANE 5 R/B, 40334 is space debris in HEO originally from a launch on Sat, 06 Dec 2014 UTC launched from the French Guiana (FRGUI). Debris objects in space refer to the collection of defunct objects orbiting the Earth. Examples of debris include non-operational satellites, rocket bodies, and fragments generated from explosions, collisions, or faulty payload assembly.

Loading next visibility...
Identifier
40334, 2014-078C
Orbit
HEO
Country
Flag of FRFR
Related business
Manufacturer
ADS/LV
Mission
Spacecraft
Bus & Motor
ESC-A, Unknown motor
Mass
~5,000 kg wet, ~5,000 kg dry
Launch date (UTC)
2014-12-06 (12 years ago)
Launch vehicle
Unknown
Launch site
French Guiana (FRGUI)
Object type
Payload
Rocket body
Debris
Shape & HBR
Cyl + 1 Nozzle, 3.5 m
Radar Cross Section
41.627 m², Large (>1 m²)

Expand to show TLE details & history
Last TLE update: 2 days ago

TLE from 2 days ago
0 ARIANE 5 R/B
1 40334U 14078C   26171.33517624  .00002692  00000-0  59113-3 0  9993
2 40334   6.4832 351.7524 6773374 201.1878 106.0780  2.94618002107338
Epoch: 2026-06-20T08:02Z
TLE epoch observation values (Epoch: 2026-06-20T08:02:39.227Z)
Latitude
Longitude
-37.41238°
Altitude
23,823.816 km
Speed
2.646 km/s
True Right ascension
23h 27m 12s
True Declination
0° 00' 00"
Sunlit
Object was in daylight at epoch
Visualization orbit readout
Latitude
Unknown
Longitude
Unknown
Altitude
Unknown
Speed
Unknown
Apparent Right ascension
Unknown
Apparent Declination
Unknown
Sunlit
N/A
Visualization observer readout
Local Sidereal Time
21:36:06
Azimuth
Unknown
Elevation
Unknown
Doppler factor
Unknown
Orbital elements
Apogee altitude
28,106.678 km
Perigee altitude
255.567 km
Semi-major axis
20,559.259 km
Eccentricity
0.67734
Inclination
6.4832°
RAAN
351.7524°
Arg. of periapsis
201.1878°
True anomaly
158.9058°
Mean anomaly
106.078°
Eccentric anomaly
133.9963°
Mean motion
0.73626 °/min
Orbital period
488.96 mins
BSTAR
0.00059113
Loading maneuver chart data...
Computing Atmospheric mass density...
Loading historical data...
Loading historical data...
Loading historical data...
Loading historical data...
Loading historical data...
Loading historical data...
Loading historical data...
Other satellites on launch #78 in the year 2014 (2014-12-06 UTC)

Documentation

Showing up to 5 results
|